Location: Sobotiste
(48.7170°N, 17.4000°E)
Time: 04:17:45
(UTC+01:00)

ARIANE 6 FM1 Upper Stage - Visible Passes

Search period start: 17 January 2026 00:00
Search period end: 27 January 2026 00:00
Orbit: 522 x 610 km, 62.0° (Epoch: 16 January)

Date Brightness Start Highest point End Pass type
(mag) Time Alt. Az. Time Alt. Az. Time Alt. Az.
20 Jan 4.8 18:35:56 10° S 18:36:47 14° SSE 18:36:47 14° SSE visible
21 Jan 4.0 18:35:31 10° S 18:37:47 24° SSE 18:37:47 24° SSE visible
22 Jan 3.2 18:35:20 10° SSW 18:38:40 40° SSE 18:38:40 40° SSE visible
22 Jan 5.8 20:14:36 10° W 20:14:44 11° W 20:14:44 11° W visible
23 Jan 2.5 18:35:18 10° SSW 18:39:18 61° SE 18:39:29 60° ESE visible
23 Jan 5.8 20:15:10 10° W 20:15:31 12° W 20:15:31 12° W visible
24 Jan 2.4 18:35:23 10° SW 18:39:28 86° SE 18:40:12 59° NE visible
24 Jan 5.8 20:15:47 10° WNW 20:16:15 12° WNW 20:16:15 12° WNW visible
25 Jan 2.7 18:35:36 10° SW 18:39:39 69° NW 18:40:49 43° NNE visible
25 Jan 5.8 20:16:27 10° WNW 20:16:52 12° WNW 20:16:52 12° WNW visible
26 Jan 3.2 18:35:55 10° WSW 18:39:52 50° NW 18:41:23 32° NNE visible
26 Jan 5.8 20:17:10 10° WNW 20:17:25 11° NW 20:17:25 11° NW visible
